Regional Weather Roundup
Issued by NWS

Home | Current Version | Previous Version | Graphics & Text | Print | Product List | Glossary On
Versions: 1 2 3 4 5 6 7 8 9 10 11 12 13 14 15 16 17 18 19 20 21 22 23 24 25 26 27 28 29 30 31 32 33 34 35 36 37 38 39 40 41 42 43 44 45 46 47 48 49 50
000
ASUS43 KOAX 012002
RWRNE

WEATHER ROUNDUP FOR NEBRASKA
NATIONAL WEATHER SERVICE OMAHA NE
300 PM CDT WED JUL 01 2015

NOTES: SATELLITE DATA IS BEING USED TO AUGMENT CLOUD COVER ABOVE
       12000 FEET.
       "FAIR" INDICATES FEW OR NO CLOUDS BELOW 12,000 FEET WITH NO
       SIGNIFICANT WEATHER AND/OR OBSTRUCTIONS TO VISIBILITY.

  * THESE STATIONS DO NOT REPORT WEATHER SUCH AS RAIN...SNOW OR FOG.

NEZ001>004-019>022-054>056-012100-
NEBRASKA PANHANDLE

CITY           SKY/WX    TMP DP  RH WIND       PRES   REMARKS
SCOTTSBLUFF    SUNNY     93  48  21 VRB3      30.03F
ALLIANCE       SUNNY     88  53  30 VRB6      30.03S
CHADRON        SUNNY     89  61  38 N8        29.99S
KIMBALL          N/A    N/A N/A N/A MISG        N/A
SIDNEY         SUNNY     90  55  30 N8        30.07S
$$

NEZ057>060-069>072-079>082-012100-
SOUTHWEST NEBRASKA

CITY           SKY/WX    TMP DP  RH WIND       PRES   REMARKS
NORTH PLATTE   SUNNY     94  56  27 N10G22    29.92F HX  92
IMPERIAL       SUNNY     95  57  27 NE10      29.97F HX  94
LEXINGTON      SUNNY     88  67  49 E5        29.92S HX  90
MCCOOK         MOSUNNY   95  61  32 NE8       29.91F HX  95
$$

NEZ005>010-023>029-035>040-094-012100-
NORTH CENTRAL NEBRASKA

CITY           SKY/WX    TMP DP  RH WIND       PRES   REMARKS
VALENTINE      SUNNY     86  65  49 N9        29.93S
AINSWORTH      MOSUNNY   85  66  52 N6        29.93S
BROKEN BOW     SUNNY     86  68  54 E3        29.92F
O`NEILL        CLOUDY    77  67  70 CALM      29.93S
ORD            SUNNY     81  67  62 SE6       29.90F
$$

NEZ041-046>049-061>064-073>077-083>087-012100-
SOUTH CENTRAL NEBRASKA

CITY           SKY/WX    TMP DP  RH WIND       PRES   REMARKS
GRAND ISLAND   PTSUNNY   81  67  62 E6        29.91S
AURORA         MOSUNNY   82  68  63 E7        29.89S
HASTINGS       SUNNY     82  69  64 N10       29.90R
KEARNEY *      SUNNY     81  68  65 NE10      29.91F
$$

NEZ011>018-030>034-042>045-012100-
NORTHEAST NEBRASKA

CITY           SKY/WX    TMP DP  RH WIND       PRES   REMARKS
NORFOLK        MOSUNNY   82  68  62 E13       29.89S
COLUMBUS *     PTSUNNY   82  66  57 E8        29.89
FREMONT        MOSUNNY   84  67  57 E9        29.88S
TEKAMAH        SUNNY     83  66  56 E10       29.88S
$$

NEZ050>053-065>068-078-088>093-012100-
SOUTHEAST NEBRASKA

CITY           SKY/WX    TMP DP  RH WIND       PRES   REMARKS
LINCOLN        MOSUNNY   86  70  58 E7        29.86S HX  90
OMAHA EPPLEY   MOSUNNY   83  69  62 NE14      29.86F
FALLS CITY     PTSUNNY   82  73  74 E10       29.83S
PLATTSMOUTH    SUNNY     84  69  61 E9        29.86S
$$

NEZ044-045-051>053-067-012100-
OMAHA AREA

CITY           SKY/WX    TMP DP  RH WIND       PRES   REMARKS
OMAHA EPPLEY   MOSUNNY   83  69  62 NE14      29.86F
FREMONT        MOSUNNY   84  67  57 E9        29.88S
MILLARD        PTSUNNY   82  70  66 NE7       29.86S
PLATTSMOUTH    SUNNY     84  69  61 E9        29.86S
$$



USA.gov is the U.S. government's official web portal to all federal, state and local government web resources and services.